Location: Newark
(3.0500°N, 36.0167°E)
Time: 22:09:46
(UTC+00:00)

Transit 2A Rocket - Pass Details

Date: 24 August 2019
Orbit: 592 x 911 km, 66.7° (Epoch: 18 September)

Event Time Altitude Azimuth Distance (km) Brightness Sun altitude
Rises 03:51:08 0° 304° (WNW) 2,813 7.5 3.7°
Reaches altitude 10° 03:54:44 10° 272° (W) 1,924 6.5 4.6°
Maximum altitude 03:56:20 12° 249° (WSW) 1,815 6.4 5.0°
Drops below altitude 10° 03:57:57 10° 227° (SW) 1,950 6.6 5.4°
Sets 04:01:42 0° 195° (SSW) 2,905 7.7 6.3°
